Dewpoint
-0 0 1 1 2 3 3 3 3 2 2 1 1 1 2 8 8 8 7 8 7 7 8 8 9 8 8 8 7 6 6 5 4 3 3 2 2 0 -0 -0 -1 -2 -2
2 2 1 1 -0 -1 -1 -1 -0 0 1 2 3 7 8 8 8 9 9 8 7 8 9 9 9 8 8 7 6 5 5 4 3 2 1 1 0 -2 -2 -2 -3 -3 -4
6 4 3 3 2 1 2 4 5 4 5 4 5 6 8 9 7 7 8 9 9 8 7 8 8 8 7 6 5 5 4 3 2 1 -0 -1 -2 -6 -6 -7 -7 -8 -8
7 7 5 4 4 4 4 5 5 5 6 7 7 7 7 8 8 6 8 9 8 7 8 8 8 6 6 5 4 3 2 2 1 -0 -1 -4 -7 -10 -10 -12 -17 -22 -25
7 7 7 7 6 6 5 6 7 5 6 7 7 6 8 9 6 6 8 9 8 8 8 7 6 5 5 4 3 2 1 0 -0 -4 -6 -7 -9 -10 -11 -15 -22 -35 -38
5 3 7 8 8 8 7 7 7 8 6 7 7 9 9 9 9 7 8 8 8 7 7 6 5 4 3 2 1 1 -0 -1 -4 -7 -8 -9 -11 -17 -32 -37 -38 -36 -34
3 5 7 8 8 9 9 9 8 9 9 9 9 10 9 9 9 9 9 7 7 6 5 5 4 3 1 1 -0 -1 -2 -6 -8 -9 -11 -19 -34 -37 -38 -38 -39 -38 -36
5 6 7 8 8 9 9 9 10 10 9 9 9 9 9 9 8 8 8 6 5 5 4 3 2 1 0 -1 -1 -4 -7 -9 -13 -24 -36 -37 -37 -37 -37 -36 -36 -35 -34
5 6 6 7 8 9 9 9 9 9 9 8 8 8 8 7 7 7 6 5 4 3 2 1 0 -1 -1 -3 -7 -9 -14 -26 -36 -36 -37 -36 -37 -36 -35 -34 -33 -31 -34
3 6 7 8 9 9 9 9 8 8 8 8 8 7 7 6 5 4 4 3 2 1 0 -1 -1 -3 -7 -10 -14 -26 -36 -37 -37 -37 -37 -36 -36 -36 -35 -33 -32 -30 -27
7 8 9 10 10 9 9 9 8 8 8 7 6 5 4 3 2 1 1 1 -0 -1 -3 -6 -8 -9 -14 -25 -34 -37 -37 -38 -37 -36 -37 -36 -36 -36 -35 -34 -32 -30 -28
10 10 10 9 9 9 8 8 8 7 6 5 4 3 1 1 0 -0 -1 -2 -4 -6 -7 -7 -11 -21 -31 -36 -37 -37 -37 -35 -33 -34 -33 -34 -34 -34 -34 -34 -33 -31 -28
9 9 9 9 9 8 7 6 5 4 4 3 2 1 0 -0 -1 -2 -3 -4 -5 -6 -7 -11 -23 -33 -36 -35 -33 -34 -32 -29 -30 -32 -33 -32 -32 -33 -34 -35 -35 -33 -30
9 9 8 8 7 6 5 4 4 3 2 2 1 0 -1 -2 -2 -3 -3 -4 -6 -7 -13 -25 -34 -34 -32 -30 -28 -26 -27 -29 -30 -31 -31 -31 -31 -32 -33 -33 -34 -33 -32
8 7 7 6 5 4 3 2 2 1 1 0 0 -1 -1 -2 -3 -4 -5 -6 -9 -16 -27 -26 -24 -21 -23 -25 -21 -24 -27 -28 -28 -29 -29 -30 -31 -31 -32 -30 -29 -30 -26
7 6 6 5 4 3 2 2 1 0 0 -0 -1 -1 -2 -4 -4 -5 -6 -7 -18 -13 -13 -18 -23 -25 -17 -14 -23 -24 -25 -25 -26 -27 -28 -29 -30 -30 -30 -29 -27 -28 -27
5 4 4 3 3 2 2 1 1 -2 -3 -3 -4 -5 -5 -5 -6 -7 -12 -19 -12 -11 -11 -10 -11 -16 -21 -21 -21 -22 -21 -22 -24 -25 -28 -29 -28 -28 -27 -26 -26 -26 -27
3 3 2 1 1 -0 -2 -3 -3 -4 -4 -5 -6 -6 -8 -10 -12 -11 -9 -10 -11 -11 -12 -13 -15 -16 -15 -15 -15 -15 -16 -16 -18 -24 -28 -27 -26 -25 -24 -24 -24 -24 -25
0 -0 -1 -3 -3 -4 -5 -5 -5 -5 -6 -6 -7 -8 -9 -10 -11 -11 -12 -12 -12 -13 -13 -14 -14 -15 -15 -16 -16 -16 -17 -18 -23 -26 -26 -25 -23 -21 -22 -21 -22 -23 -24
-3 -4 -4 -5 -5 -6 -6 -6 -7 -8 -8 -9 -10 -10 -11 -12 -12 -12 -13 -13 -14 -15 -15 -16 -16 -16 -17 -17 -18 -18 -20 -21 -24 -25 -24 -22 -21 -20 -20 -20 -20 -21 -22
-6 -6 -6 -6 -7 -7 -8 -8 -9 -10 -10 -11 -12 -12 -13 -13 -13 -14 -15 -15 -16 -16 -17 -17 -17 -18 -18 -18 -19 -20 -20 -22 -25 -24 -21 -21 -20 -20 -20 -19 -19 -20 -19
-7 -8 -8 -8 -9 -9 -10 -10 -11 -11 -12 -12 -13 -14 -14 -14 -15 -16 -16 -17 -17 -17 -18 -18 -19 -19 -19 -20 -20 -21 -21 -24 -24 -23 -21 -20 -20 -20 -19 -19 -19 -19 -18
-9 -9 -10 -10 -11 -11 -11 -12 -12 -13 -14 -14 -15 -15 -16 -16 -17 -17 -18 -18 -19 -19 -20 -21 -21 -21 -22 -22 -22 -22 -23 -24 -24 -22 -21 -20 -20 -20 -19 -19 -19 -19 -18
-10 -11 -11 -12 -12 -13 -13 -14 -15 -15 -16 -16 -17 -18 -18 -19 -20 -20 -20 -21 -21 -22 -22 -23 -23 -23 -23 -23 -24 -24 -24 -24 -22 -21 -20 -20 -20 -20 -20 -19 -19 -19 -18
-12 -12 -13 -14 -15 -16 -18 -19 -20 -20 -20 -20 -20 -21 -21 -21 -21 -21 -22 -22 -23 -23 -23 -24 -24 -25 -25 -25 -25 -25 -24 -22 -21 -21 -21 -21 -20 -20 -20 -20 -19 -19 -18
-24 -24 -24 -23 -23 -23 -23 -23 -23 -23 -23 -23 -23 -23 -23 -23 -23 -23 -23 -24 -24 -24 -25 -25 -25 -25 -25 -25 -25 -25 -22 -21 -21 -21 -21 -21 -21 -20 -20 -20 -19 -19 -18
Wind_Speed
39 39 40 40 38 37 38 39 40 40 41 41 41 43 43 41 39 38 34 32 36 38 41 34 34 26 27 26 26 24 23 23 24 22 24 23 25 26 24 22 24 27 27
44 39 41 42 41 39 36 35 38 40 40 42 43 41 41 35 35 28 30 32 34 35 34 34 28 25 29 28 25 23 24 22 22 23 23 24 28 22 22 26 26 27 28
47 47 45 46 46 45 40 34 43 44 45 46 50 44 43 37 38 40 33 31 31 24 24 27 27 29 26 25 22 23 22 20 21 21 22 27 25 23 24 25 26 27 29
41 45 49 51 49 46 43 45 35 41 37 43 41 36 37 38 38 34 33 28 23 22 23 26 28 24 21 22 22 22 22 22 21 23 25 21 21 22 25 29 33 33 37
35 38 43 47 49 48 47 48 44 40 37 43 43 42 40 38 31 31 32 26 25 25 26 25 23 22 22 24 23 22 20 19 23 19 18 19 22 25 28 32 37 39 40
32 31 35 37 40 42 45 49 52 49 45 43 45 43 35 35 39 35 27 29 27 27 27 26 23 24 24 23 19 19 20 19 17 18 20 23 25 27 29 32 34 36 41
32 33 34 33 34 36 40 44 46 48 50 47 43 40 35 29 29 29 28 27 27 26 24 23 23 22 21 19 18 19 17 17 18 20 22 23 25 26 30 31 31 34 37
32 32 31 31 33 35 36 40 40 42 41 41 37 31 29 29 31 30 27 26 23 22 21 21 20 19 17 17 17 16 17 18 20 20 21 22 24 24 25 27 30 33 37
31 32 30 29 31 34 36 38 37 34 32 30 28 26 26 28 29 27 25 23 22 21 21 20 19 18 19 16 16 17 18 18 18 20 21 21 21 21 22 25 26 30 38
30 30 29 27 28 30 31 33 32 29 27 27 28 26 27 26 24 23 21 19 18 19 19 19 19 17 16 16 17 16 17 18 19 19 19 19 20 20 20 22 25 28 31
26 27 26 24 23 23 24 24 25 27 28 30 29 26 25 22 21 20 17 17 16 17 17 16 15 14 15 16 16 17 19 20 20 21 21 21 21 22 22 22 23 25 29
22 20 19 15 15 18 19 22 24 28 31 30 28 27 24 21 18 18 17 16 16 15 14 13 12 13 15 16 17 18 19 19 20 20 21 22 24 24 24 25 25 25 27
15 13 13 16 19 21 22 25 24 24 26 26 24 22 21 19 18 18 17 16 14 13 12 11 12 14 15 16 16 18 18 19 20 22 23 23 24 25 26 26 26 27 30
12 13 16 16 17 17 18 19 20 21 21 19 19 19 20 20 19 19 18 15 13 11 12 12 12 13 13 14 16 17 19 21 22 23 24 24 25 26 26 27 28 28 31
12 12 15 16 17 18 17 16 13 11 11 14 14 16 17 18 20 18 14 12 12 11 10 10 11 13 15 16 19 21 20 20 21 22 23 25 26 27 27 27 27 27 28
10 14 16 17 17 17 17 16 15 14 15 17 17 19 21 16 14 12 11 12 12 13 14 13 13 14 17 20 19 19 19 20 22 23 25 26 27 28 29 28 27 26 27
16 19 21 22 23 24 25 25 26 22 18 13 13 12 9 8 9 9 12 13 13 18 17 18 16 16 16 17 17 19 21 23 24 25 25 25 26 27 28 28 27 27 27
21 24 26 28 29 28 24 21 18 16 15 14 11 10 7 6 9 13 13 13 11 12 13 13 14 15 17 19 21 22 22 24 24 25 25 24 24 26 27 27 26 26 26
21 23 22 19 17 17 16 13 10 8 7 7 6 6 7 7 6 6 6 9 10 11 12 13 15 16 18 20 21 22 24 24 24 24 23 23 22 23 24 24 25 24 24
17 17 19 18 16 14 11 9 8 7 7 6 5 5 5 6 7 9 11 11 11 11 12 13 15 16 18 20 22 24 25 25 24 23 22 22 21 21 23 24 23 23 22
19 17 14 14 12 10 8 7 6 6 6 6 5 5 5 7 8 10 11 11 11 12 13 14 16 18 21 23 25 26 27 26 23 22 22 22 21 21 20 22 23 21 22
14 14 12 11 10 8 7 6 5 4 3 2 3 4 6 7 8 9 10 11 12 14 16 18 21 23 25 27 28 29 28 25 22 21 22 21 21 21 21 21 21 20 20
13 12 11 10 8 7 5 4 3 2 1 1 2 4 6 7 9 10 12 14 16 18 20 22 24 25 26 26 26 26 26 24 23 21 22 21 21 21 20 20 21 20 20
11 11 9 9 7 6 5 4 3 2 2 3 5 7 8 10 11 12 14 16 18 19 21 23 24 25 25 25 24 23 22 22 21 21 21 22 21 19 20 20 20 20 20
10 9 8 7 6 5 4 3 3 3 5 6 7 9 10 11 13 14 16 18 19 21 23 24 24 24 23 23 21 20 19 19 19 19 21 22 21 20 20 21 21 20 19
9 8 7 6 5 4 4 4 5 6 7 8 10 11 11 12 14 16 18 20 21 21 22 21 21 21 21 21 20 18 17 16 17 18 20 20 21 21 21 22 21 20 19
Wind_Direction
232 231 230 231 231 233 238 241 242 243 245 248 252 255 258 261 262 259 261 264 265 263 261 267 265 260 257 260 259 259 258 264 261 263 273 275 283 287 285 281 283 282 285
233 234 236 235 234 235 239 249 252 249 252 254 254 258 259 264 269 266 264 265 266 271 268 264 250 252 250 249 245 256 257 254 260 269 278 284 287 283 279 279 281 286 289
240 234 234 238 235 233 232 243 247 250 250 253 258 260 260 258 268 259 272 267 263 260 256 247 241 250 252 245 251 251 247 253 262 270 282 286 284 290 290 292 294 292 291
246 242 238 239 240 241 239 239 244 243 245 247 256 256 259 259 269 256 269 262 248 253 246 249 245 244 244 244 244 242 243 252 265 277 281 282 294 303 304 307 303 303 303
247 245 246 244 244 243 243 241 244 250 248 250 252 255 263 258 257 259 267 241 242 239 236 237 235 237 241 240 238 242 248 264 276 278 289 293 298 302 305 307 307 308 306
244 249 248 245 245 246 242 245 243 247 249 250 253 263 262 253 249 248 253 238 232 235 230 227 232 240 237 235 235 248 264 273 270 278 286 293 299 303 307 308 307 309 312
240 244 242 242 243 243 242 243 248 249 249 253 257 255 255 256 251 238 233 230 229 227 224 231 235 230 228 236 247 266 262 267 274 284 290 295 301 306 306 306 306 305 305
238 236 237 237 238 239 242 244 248 251 250 252 249 252 243 242 231 224 229 226 219 221 227 227 226 230 237 250 254 255 264 274 280 288 293 298 301 302 302 305 306 307 306
234 231 230 231 236 240 241 244 246 244 243 244 247 234 227 214 222 226 225 220 219 217 217 220 226 242 250 244 253 263 271 278 285 291 296 298 299 302 303 303 304 304 308
231 230 229 231 239 243 243 244 244 243 241 231 219 211 210 209 209 209 212 215 212 215 222 233 228 233 242 253 265 273 280 284 288 290 292 295 297 299 302 302 305 305 307
227 224 224 230 236 236 242 242 239 226 217 205 202 193 192 194 191 191 197 217 222 221 216 222 234 249 262 272 280 285 287 291 293 295 297 300 304 305 304 302 301 300 300
218 217 221 227 230 232 235 230 220 210 201 194 192 182 184 188 198 202 206 204 205 214 224 238 254 267 278 285 288 291 296 297 295 299 306 308 307 307 307 306 304 300 296
206 209 217 223 222 224 219 210 199 196 192 183 185 185 187 196 206 203 202 206 213 225 239 254 267 274 280 286 293 294 295 300 306 306 306 307 308 309 310 310 307 304 301
196 204 207 212 210 209 204 201 196 187 187 192 197 203 207 204 204 207 209 216 228 245 258 264 272 281 291 294 295 299 302 298 300 303 304 307 308 310 311 311 311 311 308
193 204 209 205 205 192 182 177 182 205 220 217 220 218 217 211 204 206 215 229 246 257 272 282 287 288 288 292 297 292 292 296 298 301 304 307 308 308 310 312 313 313 312
202 207 204 197 189 185 187 189 195 210 214 215 219 214 196 201 208 218 233 255 259 272 279 278 276 279 284 285 283 290 294 299 302 303 304 305 307 308 310 313 314 313 311
203 196 192 187 186 193 196 203 200 193 198 194 191 190 198 224 237 260 264 260 270 276 273 271 278 279 279 285 291 296 299 300 302 304 303 305 307 308 309 310 311 311 309
193 192 188 184 185 184 178 172 168 165 163 162 176 199 212 236 248 260 270 273 277 282 286 283 279 282 287 290 292 295 296 299 301 300 300 302 303 303 306 309 310 311 309
180 175 174 166 154 145 141 139 142 147 160 175 188 205 223 224 235 252 267 285 294 297 298 295 292 291 292 294 296 298 300 300 298 297 298 300 303 304 306 309 310 311 308
130 131 132 129 129 131 135 140 142 146 155 171 190 214 233 255 274 290 299 303 306 305 300 295 293 293 293 296 299 300 299 300 298 296 297 299 302 303 307 310 311 311 309
117 115 115 123 128 133 136 138 140 144 150 163 179 205 242 266 284 295 302 306 302 298 295 293 292 293 296 298 299 300 300 299 299 299 298 301 302 301 304 308 312 312 312
108 109 110 111 115 119 119 121 121 124 141 178 210 241 261 277 290 296 297 296 294 295 295 295 295 296 297 298 298 298 298 298 298 296 296 297 299 301 305 308 311 314 314
90 92 95 96 96 97 99 98 94 98 120 260 278 288 295 300 301 301 300 299 299 298 298 298 297 297 296 296 296 298 298 299 298 298 300 300 301 303 305 309 312 316 318
84 86 86 86 83 76 68 60 49 29 337 311 308 308 307 306 307 306 305 305 305 305 305 306 306 306 305 302 299 297 295 295 295 296 297 300 302 304 305 308 311 315 316
64 65 64 61 55 49 40 28 6 342 330 322 316 314 313 312 308 306 305 307 310 312 312 312 311 309 307 305 303 299 296 295 296 298 299 299 299 301 303 304 308 310 311
48 49 51 50 43 33 19 5 353 341 330 325 322 319 317 315 315 316 317 317 315 316 316 316 315 314 312 311 308 304 298 296 299 300 299 298 298 300 303 303 304 301 305
Height
1452 1457 1462 1466 1471 1476 1479 1482 1485 1488 1491 1495 1499 1502 1503 1502 1503 1505 1506 1507 1508 1510 1511 1512 1513 1515 1515 1516 1517 1517 1518 1519 1518 1519 1520 1522 1522 1521 1521 1520 1519 1518 1518
1443 1449 1453 1458 1463 1467 1473 1476 1479 1480 1483 1486 1489 1489 1492 1493 1495 1497 1497 1496 1498 1500 1502 1503 1504 1507 1508 1508 1509 1510 1513 1512 1513 1513 1514 1515 1515 1514 1513 1512 1511 1511 1510
1433 1439 1443 1446 1452 1456 1458 1459 1462 1465 1470 1473 1476 1480 1483 1483 1486 1488 1490 1490 1492 1493 1494 1496 1497 1499 1501 1502 1504 1505 1506 1507 1508 1507 1507 1508 1507 1508 1506 1505 1505 1503 1503
1424 1428 1432 1436 1440 1445 1452 1455 1457 1459 1461 1462 1466 1471 1474 1475 1478 1481 1483 1483 1486 1487 1489 1491 1492 1493 1495 1498 1500 1501 1501 1501 1502 1502 1502 1502 1502 1502 1499 1496 1494 1493 1490
1417 1419 1420 1425 1431 1438 1442 1447 1451 1454 1456 1457 1461 1464 1467 1468 1470 1473 1475 1477 1480 1482 1483 1484 1485 1488 1490 1491 1494 1496 1496 1496 1496 1496 1497 1497 1496 1494 1492 1489 1485 1481 1479
1410 1410 1414 1420 1424 1428 1434 1437 1443 1447 1450 1452 1454 1456 1458 1459 1462 1466 1468 1472 1474 1475 1476 1477 1480 1482 1485 1487 1489 1490 1491 1491 1491 1491 1492 1490 1489 1487 1484 1482 1479 1474 1468
1403 1407 1410 1414 1417 1421 1427 1430 1433 1438 1442 1446 1447 1449 1450 1455 1457 1459 1462 1465 1468 1469 1470 1474 1476 1478 1481 1482 1484 1484 1485 1485 1485 1486 1485 1484 1482 1480 1478 1475 1473 1469 1465
1397 1400 1404 1407 1412 1415 1418 1422 1427 1430 1434 1436 1439 1441 1445 1447 1449 1452 1456 1459 1462 1464 1467 1469 1473 1474 1476 1478 1479 1480 1480 1480 1480 1479 1479 1478 1476 1475 1473 1469 1466 1461 1457
1390 1393 1396 1401 1405 1408 1411 1415 1420 1423 1427 1430 1432 1435 1438 1440 1443 1446 1449 1453 1456 1460 1462 1465 1467 1469 1471 1473 1474 1475 1475 1475 1474 1474 1473 1472 1470 1469 1467 1463 1461 1456 1448
1384 1388 1392 1397 1401 1405 1408 1411 1414 1417 1420 1423 1426 1429 1433 1436 1439 1442 1446 1450 1453 1456 1459 1462 1463 1465 1466 1468 1469 1469 1470 1469 1469 1469 1468 1466 1465 1464 1462 1459 1454 1450 1446
1380 1384 1389 1392 1397 1401 1404 1407 1409 1411 1414 1417 1421 1424 1429 1432 1435 1439 1443 1447 1450 1453 1455 1458 1460 1462 1462 1463 1463 1463 1464 1464 1463 1462 1461 1460 1458 1457 1455 1453 1450 1446 1441
1376 1383 1387 1389 1393 1397 1400 1402 1405 1407 1409 1413 1416 1421 1425 1429 1435 1438 1441 1445 1448 1451 1453 1455 1456 1457 1457 1457 1457 1457 1457 1458 1458 1456 1454 1453 1451 1450 1448 1445 1442 1439 1435
1375 1381 1385 1389 1391 1393 1396 1398 1401 1404 1408 1410 1415 1419 1424 1429 1433 1438 1441 1444 1447 1449 1451 1452 1453 1453 1453 1453 1452 1452 1453 1452 1451 1450 1448 1447 1445 1442 1439 1436 1433 1429 1424
1373 1378 1382 1385 1388 1391 1395 1398 1401 1404 1407 1411 1415 1419 1423 1427 1431 1435 1439 1441 1443 1446 1447 1448 1448 1448 1448 1448 1448 1447 1447 1446 1445 1444 1442 1441 1438 1435 1433 1429 1424 1420 1414
1374 1377 1381 1383 1387 1390 1395 1399 1403 1407 1411 1414 1416 1419 1422 1426 1430 1433 1436 1439 1440 1442 1443 1443 1444 1444 1444 1443 1443 1443 1442 1441 1441 1439 1437 1434 1431 1428 1425 1422 1417 1413 1408
1371 1378 1380 1382 1386 1391 1396 1400 1404 1408 1410 1413 1415 1417 1419 1423 1427 1431 1434 1436 1438 1439 1439 1439 1439 1439 1439 1439 1438 1438 1437 1436 1435 1434 1431 1428 1425 1421 1418 1415 1411 1407 1402
1372 1376 1380 1380 1382 1387 1389 1393 1397 1402 1405 1411 1416 1420 1423 1426 1428 1430 1432 1434 1434 1435 1435 1434 1435 1435 1435 1434 1433 1432 1432 1431 1429 1427 1425 1422 1419 1415 1411 1407 1404 1400 1395
1370 1373 1376 1378 1380 1384 1389 1393 1397 1402 1407 1413 1416 1419 1422 1425 1428 1429 1430 1430 1432 1431 1431 1431 1431 1430 1430 1429 1428 1427 1426 1424 1422 1420 1418 1415 1412 1408 1404 1401 1398 1394 1389
1372 1374 1378 1382 1386 1390 1395 1400 1403 1407 1411 1413 1416 1418 1421 1425 1426 1427 1428 1428 1428 1428 1428 1428 1428 1426 1426 1425 1423 1421 1419 1418 1416 1413 1411 1409 1406 1402 1398 1395 1391 1388 1385
1375 1382 1384 1388 1393 1397 1400 1403 1406 1409 1412 1415 1417 1418 1421 1423 1423 1424 1424 1424 1424 1424 1425 1425 1424 1422 1421 1419 1418 1416 1413 1411 1409 1406 1404 1401 1399 1396 1392 1389 1386 1381 1379
1384 1388 1391 1393 1396 1400 1403 1406 1408 1409 1412 1415 1417 1419 1419 1420 1420 1420 1421 1421 1421 1421 1421 1420 1419 1417 1415 1413 1411 1409 1406 1403 1401 1399 1396 1395 1392 1389 1386 1383 1381 1377 1374
1390 1393 1395 1397 1400 1403 1405 1408 1409 1410 1413 1415 1416 1417 1417 1418 1417 1417 1418 1418 1417 1417 1416 1415 1413 1411 1409 1406 1404 1401 1398 1396 1394 1391 1389 1387 1385 1384 1381 1378 1375 1372 1369
1394 1397 1400 1402 1404 1406 1407 1408 1409 1410 1412 1413 1414 1414 1414 1414 1414 1415 1415 1414 1413 1411 1410 1408 1405 1403 1401 1399 1396 1393 1390 1389 1387 1386 1383 1379 1377 1376 1375 1373 1370 1367 1364
1400 1401 1403 1404 1405 1406 1407 1408 1409 1410 1411 1412 1411 1411 1411 1411 1410 1410 1409 1408 1407 1405 1403 1401 1398 1395 1393 1390 1388 1386 1383 1381 1379 1378 1378 1375 1371 1371 1370 1368 1365 1363 1360
1403 1403 1404 1405 1406 1407 1408 1409 1410 1410 1410 1409 1409 1408 1408 1407 1406 1404 1403 1402 1401 1399 1397 1394 1391 1389 1386 1383 1381 1380 1379 1376 1374 1373 1372 1370 1367 1366 1364 1362 1360 1358 1356
1405 1406 1406 1406 1407 1408 1408 1408 1408 1407 1407 1407 1406 1405 1403 1402 1400 1399 1397 1396 1394 1392 1390 1388 1385 1383 1380 1378 1376 1374 1373 1371 1370 1369 1366 1364 1362 1361 1359 1357 1355 1353 1351